Lapse_Rate
5.3 5.0 3.2 3.5 3.4 3.3 3.2 2.9 2.6 2.6 2.7 2.8 2.7 2.7 2.8 2.7 2.8 3.2 3.3 3.6 4.0 4.3 4.5 4.4 4.7 5.0 5.0 4.9 4.7 4.7 4.9 5.3 5.6 5.7 5.5 5.5 5.6 5.6 5.3 5.1 5.8 6.2 5.0
4.7 4.8 3.0 3.1 3.6 3.4 3.2 2.9 2.7 2.6 2.9 3.2 3.1 2.9 2.8 2.8 3.0 3.4 3.8 4.1 4.2 4.3 4.4 4.5 4.5 4.7 4.6 4.5 4.3 4.4 4.5 4.9 5.6 5.5 5.5 5.6 5.4 5.2 5.0 5.0 5.7 5.6 5.2
4.6 4.5 4.1 3.2 3.7 3.6 3.4 3.0 3.0 3.1 3.4 3.5 3.2 3.0 3.0 3.0 3.3 3.5 3.8 4.2 4.4 4.4 4.3 4.3 4.4 4.5 4.5 4.1 4.0 4.2 4.5 4.9 5.0 5.1 5.6 7.8 6.6 5.7 5.4 5.1 5.1 6.0 5.6
4.3 4.5 4.8 3.4 3.9 3.9 3.7 3.5 3.4 3.6 3.6 3.4 3.2 3.2 3.1 3.2 3.5 3.6 3.6 3.9 4.0 4.2 4.3 4.2 4.2 4.3 4.2 4.1 4.3 4.4 4.6 4.6 4.6 5.0 8.0 7.8 7.8 6.3 5.6 5.4 5.2 5.4 6.2
4.1 4.2 4.4 3.5 4.0 4.1 3.9 3.6 3.6 3.5 3.5 3.5 3.4 3.3 3.3 3.4 3.5 3.6 3.7 3.9 3.9 4.3 4.1 3.8 3.7 3.5 3.5 4.0 4.2 4.4 4.6 4.8 4.8 6.3 6.9 7.5 7.9 6.5 5.6 5.7 6.1 6.2 5.9
3.1 4.0 2.9 3.0 3.4 3.6 3.5 3.4 3.4 3.3 3.3 3.4 3.5 3.5 3.5 3.7 3.7 3.6 3.8 3.9 4.1 4.4 4.2 3.9 3.7 3.4 3.7 3.9 3.9 4.2 4.4 4.3 4.9 6.9 7.2 6.6 7.9 6.7 5.8 5.4 5.6 6.1 6.2
2.8 3.7 3.5 2.7 3.0 3.4 3.5 3.3 3.3 3.3 3.3 3.3 3.3 3.4 3.7 3.9 3.6 3.5 3.8 4.0 4.1 4.0 3.5 3.4 3.4 3.4 3.8 3.9 4.1 4.4 4.4 4.5 7.2 7.5 7.5 7.2 6.8 5.8 5.7 5.9 6.1 6.0 6.2
2.7 3.1 3.4 3.4 3.2 3.4 3.4 3.3 3.3 3.2 3.3 3.4 3.3 3.5 3.6 3.5 3.5 3.6 3.7 3.8 3.8 3.4 3.3 3.2 3.3 3.2 3.2 3.5 3.7 3.9 4.0 4.7 6.6 7.5 7.2 7.6 5.8 5.5 5.3 5.3 5.3 6.4 6.1
3.0 3.1 3.0 3.7 4.2 3.8 3.6 3.5 3.4 3.4 3.5 3.5 3.4 3.6 3.5 3.5 3.6 3.6 3.4 3.5 3.6 3.5 3.3 3.2 3.0 3.0 3.0 3.2 3.4 3.8 4.0 4.6 7.0 6.9 7.3 6.7 5.3 5.7 5.7 4.8 4.8 5.0 4.9
3.3 3.5 3.5 3.5 4.3 4.4 4.3 3.5 3.5 3.7 3.8 3.6 3.4 3.6 3.6 3.6 3.6 3.6 3.6 3.4 3.4 3.8 3.5 3.3 2.9 2.7 2.7 3.0 3.3 3.6 3.6 4.6 7.0 7.1 7.2 7.1 5.7 5.6 5.0 4.8 4.4 4.3 4.0
3.3 3.1 3.3 3.7 3.8 3.8 4.1 4.1 3.7 3.9 3.9 3.8 3.8 3.8 3.7 5.1 4.9 4.7 4.2 3.7 3.9 4.1 3.7 3.4 3.2 2.7 2.6 2.8 3.2 3.8 4.7 5.5 6.3 7.0 7.2 5.3 5.6 5.9 5.7 4.7 3.7 3.6 3.8
2.8 2.7 3.7 3.9 3.8 3.8 3.8 4.1 4.4 4.7 4.9 5.0 5.0 4.8 5.0 4.8 5.0 5.0 4.4 3.7 3.6 3.8 3.7 3.6 3.6 3.3 3.0 4.5 4.4 3.4 5.6 5.4 6.0 6.6 7.3 5.7 5.5 5.5 5.2 5.2 4.5 3.6 3.5
2.4 2.9 3.0 3.2 3.2 3.4 3.5 3.6 4.1 4.2 4.5 4.8 4.8 4.8 5.0 4.7 4.5 4.8 4.9 4.9 4.6 4.0 5.2 4.6 4.8 5.7 5.2 4.8 4.7 4.7 5.2 5.4 5.9 6.5 7.1 5.8 5.9 5.8 5.3 5.0 4.3 3.9 3.6
0.9 1.7 2.4 2.9 2.3 2.8 3.7 3.3 3.6 3.9 3.6 4.6 4.9 4.5 4.6 4.6 4.4 4.6 5.0 4.9 4.7 5.2 4.7 4.5 4.8 4.7 4.7 4.3 4.3 4.4 4.5 6.3 5.9 6.9 6.8 5.8 5.9 6.0 5.7 5.3 4.5 3.8 3.3
0.6 0.9 1.3 2.2 2.2 2.7 3.5 3.6 4.1 4.0 4.1 4.2 4.5 4.3 4.2 4.7 5.0 4.8 4.3 3.6 3.6 3.4 3.5 3.6 4.5 5.1 5.3 4.9 4.3 4.1 4.4 4.7 5.4 5.9 6.6 5.6 5.8 6.3 6.2 5.7 5.1 4.4 3.8
2.3 1.3 0.6 1.1 1.9 2.8 3.1 3.7 4.2 4.1 4.0 3.6 3.6 4.3 3.7 4.6 4.8 4.9 4.9 4.7 4.7 3.7 3.1 4.9 4.9 5.0 5.5 4.9 4.8 4.1 4.0 4.3 4.0 5.3 6.0 6.1 5.9 6.2 6.6 6.5 5.9 5.5 5.3
2.4 2.8 1.7 1.0 1.6 2.2 3.0 3.6 3.7 3.8 4.0 4.3 3.6 3.2 3.9 4.2 4.8 5.5 6.0 5.1 3.9 3.6 3.9 5.2 5.1 5.4 6.0 5.6 5.3 5.2 4.7 3.8 3.2 4.3 5.4 5.9 5.9 6.3 6.7 6.7 6.6 6.4 6.1
3.6 2.6 2.5 2.5 1.8 2.2 2.8 3.3 3.7 4.1 4.2 4.4 3.3 3.2 3.4 4.0 5.1 5.4 6.3 5.9 4.2 3.6 4.3 4.1 4.7 4.1 4.0 3.5 4.3 6.0 5.0 4.2 4.3 2.9 4.5 5.3 6.3 7.0 6.5 7.0 6.7 6.8 6.7
3.9 3.0 2.5 2.4 1.7 2.0 2.8 3.5 3.8 3.8 3.9 3.3 3.2 3.5 3.9 4.1 3.5 4.0 4.0 4.2 3.5 3.5 3.8 4.5 4.6 3.9 3.4 3.3 3.6 3.1 3.8 3.7 4.1 3.8 5.2 4.3 4.8 5.7 6.7 7.4 7.5 7.4 7.0
3.6 3.3 3.1 2.5 2.5 3.0 3.1 3.3 3.7 3.6 3.2 2.9 3.0 3.2 4.4 4.2 4.3 4.2 4.7 4.9 4.5 4.2 3.4 4.0 3.9 3.7 4.1 3.3 3.9 3.2 3.5 3.6 4.1 3.3 3.6 3.9 4.1 3.4 4.4 6.6 7.1 7.7 7.3
2.4 2.9 3.0 2.8 2.5 2.3 2.5 3.2 3.7 3.4 2.9 3.6 3.5 3.3 4.8 5.1 4.6 4.7 5.6 5.4 5.2 5.8 4.5 4.6 4.9 5.0 4.4 3.6 4.1 4.3 4.0 4.0 3.4 3.2 3.9 4.1 4.2 3.5 3.6 3.9 5.9 7.8 7.3
1.4 2.1 3.5 3.7 1.9 2.5 3.1 3.4 3.5 2.9 3.6 5.6 5.5 4.8 4.6 3.7 3.2 3.0 3.3 4.0 4.9 4.6 4.3 5.2 5.4 4.8 4.4 4.2 4.5 4.6 4.8 4.1 3.3 2.3 2.7 3.4 3.2 2.2 3.3 2.6 4.2 5.3 6.1
0.8 1.3 3.1 3.4 2.1 2.7 3.1 1.7 1.2 1.6 2.3 4.6 4.6 4.5 4.1 2.7 2.4 3.0 4.0 4.0 4.1 4.6 5.3 5.7 5.8 5.9 5.7 4.5 4.2 5.3 5.1 6.2 4.5 2.2 2.5 2.4 2.1 2.1 2.1 2.0 1.9 3.3 5.4
0.7 1.4 2.7 2.1 2.4 2.6 3.0 3.0 3.3 4.3 6.2 5.3 4.9 3.6 3.4 2.3 3.1 3.2 3.4 3.5 4.0 3.9 3.9 4.8 5.5 5.8 5.9 5.2 4.9 5.4 4.2 4.7 5.0 4.4 2.1 2.1 2.0 2.2 2.2 1.8 1.9 2.6 4.2
0.9 1.9 2.5 3.1 3.4 2.6 3.5 3.7 4.0 4.8 4.4 3.2 2.1 2.5 3.2 3.5 3.2 3.5 3.3 3.6 3.7 3.7 4.0 4.3 4.8 4.8 5.4 5.7 5.5 5.1 5.4 3.0 3.4 3.8 3.3 1.9 1.5 3.1 2.9 2.8 2.4 2.4 3.2
1.2 2.3 2.7 3.5 3.3 3.4 4.2 4.3 4.3 4.6 3.7 2.8 3.0 3.3 3.8 3.7 3.7 3.3 3.0 3.2 3.2 3.1 3.2 4.0 4.8 5.2 5.6 5.8 5.2 5.6 5.6 5.0 4.3 3.7 5.0 3.6 3.9 3.6 2.7 2.8 2.5 2.2 2.0
Wind_Speed
9 20 21 16 15 15 15 17 21 22 23 23 23 22 20 19 18 17 15 15 13 12 12 11 11 11 11 13 15 14 11 14 15 17 16 15 14 13 13 12 10 13 15
15 21 23 20 18 17 16 17 19 21 21 21 20 20 19 19 18 16 14 13 12 11 11 11 11 10 11 11 12 14 14 15 13 15 15 15 14 14 13 12 12 13 12
17 21 22 21 19 18 18 19 19 19 19 19 19 19 19 18 17 16 14 12 11 11 10 10 10 9 8 10 11 12 13 14 15 14 11 11 12 13 14 14 13 12 11
15 18 19 19 18 18 18 18 19 19 19 19 19 19 19 18 16 15 14 13 12 10 10 9 9 7 6 7 8 10 11 13 14 14 9 10 11 13 15 14 13 12 11
13 17 18 20 19 18 19 19 20 20 20 19 20 20 19 18 17 16 14 12 11 9 8 9 8 7 6 6 7 10 11 11 12 8 10 10 10 13 15 10 9 12 10
14 18 21 23 24 23 23 22 22 21 21 20 18 18 18 16 16 15 13 12 11 8 7 7 6 6 4 4 7 9 11 12 11 9 9 10 9 13 11 11 11 11 13
13 16 19 21 21 21 21 21 21 21 21 20 19 18 17 16 15 14 11 11 11 8 8 7 6 5 2 1 4 8 11 11 7 8 9 10 11 12 12 11 10 11 12
11 11 12 15 17 19 19 19 20 20 20 19 18 17 17 16 14 12 11 10 10 8 6 5 5 4 4 4 6 9 13 13 9 9 9 8 12 11 12 10 10 8 12
10 10 10 11 14 15 17 18 18 18 18 17 17 17 16 16 14 12 11 9 8 7 5 4 5 5 4 5 7 10 12 12 10 9 9 9 11 9 11 10 5 8 9
8 8 9 11 14 15 15 17 17 16 15 16 16 16 16 14 13 11 9 8 8 7 5 3 3 3 3 4 6 10 12 14 11 11 8 8 8 9 11 9 5 8 10
7 9 9 11 14 14 14 14 15 14 14 15 15 15 14 9 9 8 5 8 8 8 7 5 4 4 5 4 5 8 11 8 11 10 9 15 9 7 6 10 11 11 8
12 12 11 10 10 12 12 14 14 14 13 13 12 13 10 9 7 5 5 6 6 7 7 5 4 4 5 6 7 8 7 9 8 9 8 13 11 9 9 11 11 11 8
14 11 13 11 11 12 11 12 11 10 11 11 12 12 9 8 7 6 5 4 4 6 5 3 2 2 3 6 9 9 9 10 11 10 10 14 13 10 12 12 12 12 10
15 16 14 14 11 13 12 10 10 9 9 10 11 12 10 9 8 7 7 6 6 5 6 5 4 4 5 6 9 11 12 12 11 11 12 15 15 13 13 13 13 13 14
16 16 14 13 12 10 10 8 9 9 10 10 11 13 12 10 7 9 6 5 4 4 4 5 5 6 6 6 8 11 13 13 13 12 12 18 17 15 15 15 14 15 15
16 16 15 14 13 11 8 8 7 9 10 11 11 12 13 10 9 8 6 6 5 4 4 5 5 6 5 6 7 10 12 14 14 14 13 16 18 17 17 17 16 16 15
15 14 16 14 13 11 10 9 9 10 12 11 10 11 14 13 10 8 6 4 6 5 6 6 7 5 4 5 5 6 9 11 12 11 10 10 14 15 17 18 18 17 17
13 15 15 12 13 12 10 8 8 10 9 10 6 5 7 8 9 9 6 5 5 5 5 4 4 3 2 3 4 6 6 8 10 10 11 11 13 15 15 18 19 19 18
14 13 14 14 15 15 12 8 8 8 7 6 6 6 7 9 8 8 5 7 6 5 4 4 4 4 3 4 4 3 4 4 7 8 11 9 11 12 12 17 20 20 21
13 14 14 13 15 14 9 6 5 4 3 5 6 7 8 7 9 10 9 9 7 3 3 4 5 3 3 5 4 4 4 5 7 6 10 16 16 18 17 14 19 22 25
13 15 17 16 14 10 7 6 3 3 3 4 6 9 8 7 8 7 5 6 7 6 5 6 4 6 5 6 3 3 3 6 5 5 9 10 11 11 15 17 18 19 21
13 15 15 15 14 11 8 7 4 3 2 4 5 5 5 5 6 5 5 5 5 4 6 8 8 4 4 8 3 2 2 2 5 5 5 6 6 7 12 12 14 16 18
9 12 13 15 13 12 12 7 4 3 2 3 3 3 3 3 5 5 6 6 6 6 7 7 8 9 6 7 8 3 3 5 4 3 7 5 5 3 3 7 13 11 16
9 12 14 13 14 12 15 9 8 4 5 3 2 1 2 3 3 3 5 6 5 6 6 6 6 8 7 5 5 7 1 1 4 3 2 5 5 7 6 7 9 9 11
8 10 10 13 14 12 13 11 7 7 4 3 2 3 4 3 5 5 5 6 6 5 7 9 8 8 6 5 4 2 8 2 1 1 3 3 4 5 6 6 8 9 9
7 10 12 14 12 12 11 10 10 10 7 4 4 4 4 4 4 6 8 7 7 7 7 6 8 9 9 8 5 6 4 4 4 3 4 3 7 6 5 5 6 8 4
Wind_Direction
153 152 142 141 140 137 133 121 116 116 118 121 123 126 125 119 115 113 111 110 113 115 113 110 107 106 111 113 114 113 107 114 114 113 107 103 98 89 84 85 99 87 77
146 154 144 144 145 144 139 127 121 120 121 120 121 118 118 117 114 112 109 115 116 113 109 104 106 107 110 109 110 116 112 111 118 106 107 106 103 100 90 77 71 81 77
147 152 151 143 146 145 143 134 127 122 120 121 120 120 119 115 117 118 117 110 108 109 102 101 101 103 107 111 114 117 117 115 115 111 116 108 107 107 102 94 81 77 80
142 149 150 140 142 143 136 129 126 127 129 129 128 126 122 121 121 119 115 120 117 108 110 105 101 101 104 114 124 124 125 125 120 122 118 113 105 102 94 85 92 88 74
143 151 149 142 139 137 136 134 135 137 136 134 132 131 130 133 134 128 119 114 109 117 111 114 116 118 120 133 144 147 140 134 129 133 121 121 111 104 88 91 100 92 88
151 158 154 152 150 150 148 145 144 142 141 140 136 134 134 135 130 123 122 120 117 120 109 98 101 103 122 148 161 167 159 147 154 137 134 117 112 104 100 92 78 84 90
159 162 161 159 155 152 150 148 147 145 143 143 141 138 134 131 131 127 119 113 111 105 98 91 88 89 77 175 186 188 171 160 163 144 139 131 115 101 91 78 74 80 80
148 151 152 163 158 156 150 150 152 151 150 147 141 137 133 133 130 124 115 109 102 102 93 80 72 83 91 125 138 154 161 166 168 153 151 137 120 122 107 83 58 77 77
144 146 145 164 165 160 157 159 159 157 154 147 141 141 140 139 137 130 125 118 109 100 85 71 68 63 76 114 125 144 148 160 164 162 153 133 126 135 113 110 94 89 74
146 151 154 159 166 168 168 166 163 162 156 151 148 149 146 144 142 144 138 133 126 121 110 85 72 93 127 126 143 153 154 163 168 161 162 140 138 139 129 121 125 103 92
168 168 169 172 169 169 168 169 163 164 162 157 157 156 152 158 159 153 135 142 143 144 153 166 164 142 149 166 161 164 162 169 168 173 170 146 155 150 139 139 132 115 116
186 184 180 179 170 169 170 165 170 170 172 172 170 169 171 167 168 161 153 169 169 159 166 174 175 152 160 183 175 173 187 171 174 185 184 163 164 161 152 149 137 128 131
183 187 189 184 175 177 173 171 172 170 170 173 175 174 174 172 176 190 192 186 192 176 173 184 200 226 201 195 196 193 194 180 176 195 186 164 167 168 163 160 150 138 137
185 191 189 189 183 186 177 177 169 169 171 181 183 177 181 190 195 203 206 200 205 196 169 178 194 212 220 214 210 203 197 199 190 189 188 178 169 173 170 168 163 150 147
194 193 191 189 186 185 177 170 173 179 186 190 190 196 195 201 206 209 219 212 214 195 185 180 198 208 210 221 218 210 205 208 198 189 188 187 179 180 176 170 165 161 155
198 192 187 190 186 177 167 170 172 175 192 200 205 207 206 211 215 216 224 225 228 214 207 218 204 221 220 221 215 212 214 205 199 197 192 193 186 181 184 178 173 170 164
204 191 191 186 181 172 172 171 173 185 196 211 215 216 213 217 222 230 240 239 230 222 228 235 221 218 222 216 245 238 231 214 194 191 185 189 190 195 194 185 180 175 165
202 194 190 184 179 176 179 180 181 189 202 218 206 209 221 229 236 239 250 254 240 228 228 236 240 231 222 216 225 225 218 218 212 176 183 189 188 199 209 195 180 175 168
209 198 189 185 183 181 184 174 175 184 197 176 181 204 213 218 209 218 222 236 223 231 209 228 230 210 197 201 196 185 225 196 221 192 199 205 184 186 200 200 184 177 168
216 203 192 188 184 180 170 162 165 167 165 175 196 198 208 210 208 209 226 237 226 208 227 219 219 176 189 183 189 195 191 203 211 203 198 199 198 181 183 204 191 190 177
216 201 194 183 181 168 154 165 164 170 168 197 201 203 209 223 229 233 249 249 244 241 224 223 232 216 201 178 142 199 206 215 217 225 225 221 212 194 175 183 198 194 186
209 202 189 184 169 168 167 170 149 150 162 205 194 195 221 230 232 228 242 257 259 248 236 236 219 195 190 172 176 162 202 237 232 205 203 215 197 200 193 177 190 182 182
194 187 184 179 165 166 161 128 110 97 108 173 190 209 214 219 228 232 242 253 258 253 254 245 239 228 217 193 191 186 168 231 191 175 217 203 185 171 194 199 163 193 172
182 181 178 164 163 159 160 152 158 164 178 180 176 163 232 230 236 253 263 260 263 265 266 260 254 238 229 203 202 218 179 127 194 201 199 211 199 182 184 187 164 182 183
173 171 161 162 159 160 170 165 159 167 169 131 162 215 232 246 250 253 259 260 261 257 255 251 241 232 218 218 205 170 220 149 83 123 203 198 185 202 187 195 187 160 185
166 168 165 163 158 161 166 170 173 171 173 180 206 237 246 252 255 244 238 243 240 240 244 251 246 237 229 226 216 219 207 183 186 175 211 194 214 188 175 183 184 158 177